Regional Weather Roundup
Issued by NWS

Home | Current Version | Previous Version | Graphics & Text | Print | Product List | Glossary On
Versions: 1 2 3 4 5 6 7 8 9 10 11 12 13 14 15 16 17 18 19 20 21 22 23 24 25 26 27 28 29 30 31 32 33 34 35 36 37 38 39 40 41 42 43 44 45 46 47 48 49 50
000
ASUS43 KDTX 281410
RWRMI
MICHIGAN HOURLY REGIONAL WEATHER ROUNDUP
NATIONAL WEATHER SERVICE DETROIT/PONTIAC MI
1000 AM EDT TUE MAR 28 2017

NOTE: "FAIR" INDICATES FEW OR NO CLOUDS BELOW 12,000 FEET WITH NO
SIGNIFICANT WEATHER AND/OR OBSTRUCTION TO VISIBILITY.

MIZ047>049-052>055-059>063-066>070-074>076-081>083-281500-
SOUTHEAST LOWER MICHIGAN

CITY           SKY/WX    TMP DP  RH WIND       PRES   REMARKS
ADRIAN         CLOUDY    44  42  93 N14       30.02R
ANN ARBOR      CLOUDY    45  39  79 N9        30.02R
BAD AXE        CLOUDY    37  37 100 NE9       30.07R FOG     WCI  30
CARO           CLOUDY    38  37  99 N8        30.07R FOG     WCI  32
DETROIT CITY   CLOUDY    43  38  82 N9        30.03R
DETROIT        CLOUDY    46  39  76 N9        30.03R
FLINT          CLOUDY    40  38  93 N12       30.06R WCI  33
GROSSE ILE     CLOUDY    44  39  81 NE10      30.01R
HILLSDALE      CLOUDY    41  37  87 N6        30.01R
HOWELL         CLOUDY    40  38  93 N7        30.03S FOG

CITY           SKY/WX    TMP DP  RH WIND       PRES   REMARKS
JACKSON        CLOUDY    43  39  86 NE9       30.03R
LAMBERTVILLE   CLOUDY    46  41  83 N7        30.01R
LANSING        CLOUDY    41  37  86 NE9       30.06R FOG
LAPEER         CLOUDY    39  38  97 N6        30.05R FOG     WCI  35
MASON          CLOUDY    41  40  95 N8        30.05R
MONROE         CLOUDY    44  41  88 N9        30.01S
MT. CLEMENS    CLOUDY    43  41  95 N14       30.01S
PONTIAC        CLOUDY    40  37  89 N9        30.02R WCI  34
PORT HOPE        N/A     37  36  96 VRB3      30.06R
PORT HURON     CLOUDY    39  36  87 N10       30.04R FOG     WCI  32
TRI CITIES     CLOUDY    39  38  96 NE15      30.08S FOG     WCI  31
MIDLAND        CLOUDY    40  37  87 NE6       30.08R
TROY           CLOUDY    42  37  81 N9G17     30.05R
SAGINAW HB     CLOUDY    37  36  93 N14       30.07R WCI  29
$$
MIZ043>046-050>051-056>058-064>065-071>073-077>080-281500-
SOUTHWEST LOWER MICHIGAN

CITY           SKY/WX    TMP DP  RH WIND       PRES   REMARKS
BATTLE CREEK   CLOUDY    43  41  93 N7        30.04R FOG
BENTON HARBOR  CLOUDY    39  37  92 VRB6      30.07R FOG     WCI  35
BIG RAPIDS     CLOUDY    38  35  87 NE5       30.08R WCI  35
COLDWATER      CLOUDY    45  41  86 N7        30.02S
FREMONT        CLOUDY    40  36  85 NE7       30.08R
HOLLAND        CLOUDY    42  37  82 N8        30.07R
GRAND RAPIDS   CLOUDY    41  39  93 NE10      30.06R
IONIA          CLOUDY    39  37  95 N7        30.06R FOG     WCI  34
KALAMAZOO      LGT RAIN  44  40  85 NE6       30.04R FOG
LUDINGTON      CLOUDY    38  36  92 NE7       30.11R WCI  32
MARSHALL       CLOUDY    43  42  97 N5        30.03S FOG
MOUNT PLEASANT CLOUDY    40  36  86 N6        30.08R
MUSKEGON       CLOUDY    42  37  82 NE7       30.09R
SOUTH HAVEN    CLOUDY    40  40  98 N3        30.06R
$$
MIZ016>042-281500-
NORTHERN LOWER MICHIGAN

CITY           SKY/WX    TMP DP  RH WIND       PRES   REMARKS
ALPENA         CLOUDY    39  35  86 N9        30.11R WCI  33
BEAVER ISLAND  CLOUDY    35  35 100 NE3       30.13S
BELLAIRE       CLOUDY    37  35  94 N3        30.13R
CADILLAC       CLOUDY    35  34  96 N8        30.08R WCI  28
CHARLEVOIX     CLOUDY    36  36 100 NE6       30.16R FOG     WCI  31
FRANKFORT      CLOUDY    35  33  91 N3        30.13R FOG
GAYLORD        CLOUDY    36  32  85 NE7       30.09R FOG     WCI  30
GRAYLING       CLOUDY    37  34  87 NE7       30.10R WCI  32
HARBOR SPRINGS CLOUDY    37  35  95 NE5       30.13R WCI  33
HOUGHTON LAKE  CLOUDY    38  34  85 NE10      30.09R WCI  31
MANISTEE       CLOUDY    37  35  92 NE7       30.11R WCI  32
OSCODA         CLOUDY    39  37  89 N7        30.09R WCI  34
PELLSTON       CLOUDY    37  33  85 NE8       30.13R WCI  31
ROGERS CITY    PTSUNNY   38  34  85 N6        30.13R WCI  33
TRAVERSE CITY  CLOUDY    36  34  92 N6        30.11S FOG     WCI  31
$$
MIZ007>008-015-281500-
EASTERN UPPER MICHIGAN

CITY           SKY/WX    TMP DP  RH WIND       PRES   REMARKS
KINROSS        FOG       33  33 100 NE7       30.13R VSB 1/2 WCI  27
MACKINAC ISLAN CLOUDY    33  33 100 NE7       30.12R WCI  27
NEWBERRY       FOG       31  31  97 CALM      30.13R VSB 1/4
S. S. MARIE    CLOUDY    35  32  88 CALM      30.13R FOG
MUNISING         N/A     32  32 100 CALM      30.14R
$$
MIZ004>006-011>014-085-281500-
CENTRAL UPPER MICHIGAN

CITY           SKY/WX    TMP DP  RH WIND       PRES   REMARKS
MANISTIQUE     FOG       32  30  93 CALM      30.14R VSB 1
ESCANABA       FOG       30  30 100 E6        30.16R VSB 1/2 WCI  24
MENOMINEE        N/A    N/A N/A N/A MISG        N/A
SAWYER-GWINN   SUNNY     37  32  81 CALM      30.13R
$$
MIZ001>003-009>011-084-281500-
WESTERN UPPER MICHIGAN

CITY           SKY/WX    TMP DP  RH WIND       PRES   REMARKS
IRON MOUNTAIN  SUNNY     35  32  88 NW5       30.12R WCI  31
HOUGHTON       MOSUNNY   40  32  73 NW5       30.12R
COPPER HARBOR    N/A     38  32  79 N7        30.12R WCI  33
IRONWOOD       SUNNY     36  34  92 CALM      30.14S
$$

ABBREVIATIONS USED IN REMARKS
   TC - TEMPERATURE IN CELSIUS
  WCI - WIND CHILL INDEX
   HX - HEAT INDEX
  VSB - VISIBILITY





USA.gov is the U.S. government's official web portal to all federal, state and local government web resources and services.